Terug naar catalogus

CZ-6A R/B

ActiefPO
NORAD 65822·ROCKET BODY·🇨🇳 China

Gelanceerd Sep 27, 2025 vanaf Taiyuan Satellite Launch Center

Loading…

Volgende Passages (komende 24 uur)

TLE

VersSource: Space-Track

Epoch: Sep 14, 2026, 18:00 UTC

1 65822U 25220F   26257.75027372  .00000059  00000-0  28765-4 0  9995
2 65822  86.5152 359.7967 0105790 116.8799 244.3235 13.94215684 49088

Volg CZ-6A R/B in realtime met AllMySat

Download on the App Store